Fairchild AFB, WA

8:04 PM PST on February 22, 2017 (GMT -0800)
Fairchild Air Force Base

Weather History for KSKA - December, 2012

Change the Weather History Date:

Wednesday, December 5, 2012

  Actual Average Record
Temperature  
Mean Temperature 39 °F -  
Max Temperature 46 °F 34 °F 46 °F (2012)
Min Temperature 32 °F 26 °F 6 °F (2013)
Degree Days  
Heating Degree Days 26    
Moisture  
Dew Point 37 °F    
Average Humidity 90    
Maximum Humidity 100    
Minimum Humidity 61    
Precipitation  
Precipitation 0.01 in - - ()
Sea Level Pressure  
Sea Level Pressure 29.93 in    
Wind  
Wind Speed 18 mph (SW)    
Max Wind Speed 26 mph    
Max Gust Speed 33 mph    
Visibility 10 miles    
Events Rain , Snow    
Averages and records for this station are not official NWS values.
T = Trace of Precipitation, MM = Missing Value Source: NWS Daily Summary

Daily Weather History Graph

Daily Weather History Graph

Search for Another Location

Airport or City:

Trip Planner

Search our weather history database for the weather conditions in past years. The results will help you decide how hot, cold, wet, or windy it might be!

Date:

Astronomy

Dec. 05, 2012 Rise Set
Actual Time 7:23 AM PST 3:59 PM PST
Civil Twilight 6:47 AM PST 4:35 PM PST
Nautical Twilight 6:08 AM PST 5:14 PM PST
Astronomical Twilight 5:31 AM PST 5:51 PM PST
Moon 11:16 PM PST (12/5) 11:29 AM PST (12/5)
Length of Visible Light 9h 47m
Length of Day
8h 36m
Waning Gibbous, 58% of the Moon is Illuminated
Dec 5
Waning Gibbous
Dec 6
Last Quarter
Dec 13
New
Dec 19
First Quarter
Dec 28
Full

Hourly Weather History & Observations

Time (PST) Temp. Windchill Dew Point Humidity Pressure Visibility Wind Dir Wind Speed Gust Speed Precip Events Conditions
12:13 AM 46.4 °F 39.2 °F 46.4 °F 100% 29.69 in 10.0 mi SSW 18.4 mph 26.5 mph N/A Rain Light Rain
12:27 AM 46.4 °F 39.0 °F 46.4 °F 100% 29.69 in 10.0 mi SSW 19.6 mph 26.5 mph N/A   Mostly Cloudy
12:30 AM 46.4 °F 39.0 °F 46.4 °F 100% 29.69 in 10.0 mi SSW 19.6 mph 25.3 mph N/A Rain Light Rain
12:40 AM 46.4 °F 39.0 °F 46.4 °F 100% 29.69 in 10.0 mi SSW 19.6 mph 26.5 mph N/A Rain Light Rain
12:45 AM 46.4 °F 39.0 °F 46.4 °F 100% 29.69 in 10.0 mi SSW 19.6 mph 29.9 mph N/A Rain Light Rain
12:51 AM 46.4 °F 39.0 °F 46.4 °F 100% 29.69 in 10.0 mi SSW 19.6 mph 29.9 mph N/A Rain Light Rain
12:56 AM 46.4 °F 38.3 °F 46.4 °F 100% 29.70 in 10.0 mi SW 23.0 mph 31.1 mph N/A Rain Light Rain
12:58 AM 46.8 °F - 46.8 °F 100% 29.69 in 10.0 mi SW 21.9 mph 31.1 mph 0.01 in Rain Light Rain
1:08 AM 46.4 °F 38.7 °F 46.4 °F 100% 29.70 in 10.0 mi SW 20.7 mph 26.5 mph N/A Rain Light Rain
1:48 AM 46.4 °F 38.7 °F 46.4 °F 100% 29.70 in 10.0 mi SW 20.7 mph 31.1 mph N/A Rain Light Rain
1:58 AM 46.9 °F - 46.9 °F 100% 29.70 in 10.0 mi SW 21.9 mph 32.2 mph 0.00 in Rain Light Rain
2:08 AM 46.4 °F 38.1 °F 46.4 °F 100% 29.72 in 10.0 mi SW 24.2 mph 33.4 mph N/A Rain Light Rain
2:31 AM 46.4 °F 39.0 °F 46.4 °F 100% 29.73 in 10.0 mi SW 19.6 mph 27.6 mph N/A   Mostly Cloudy
2:36 AM 46.4 °F 39.2 °F 46.4 °F 100% 29.73 in 10.0 mi SW 18.4 mph 27.6 mph N/A   Mostly Cloudy
2:41 AM 46.4 °F 39.2 °F 46.4 °F 100% 29.73 in 10.0 mi SW 18.4 mph 27.6 mph N/A   Overcast
2:47 AM 46.4 °F 39.2 °F 46.4 °F 100% 29.73 in 10.0 mi SW 18.4 mph 27.6 mph N/A Rain Light Rain
2:58 AM 46.0 °F 37.6 °F 46.0 °F 100% 29.74 in 10.0 mi SW 24.2 mph 28.8 mph 0.00 in Rain Light Rain
2:59 AM 46.4 °F 37.9 °F 46.4 °F 100% 29.73 in 10.0 mi SW 25.3 mph 28.8 mph N/A   Overcast
3:00 AM 46.4 °F 37.7 °F 46.4 °F 100% 29.74 in 10.0 mi SW 26.5 mph 28.8 mph N/A Rain Light Rain
3:17 AM 44.6 °F 35.9 °F 44.6 °F 100% 29.75 in 10.0 mi WSW 23.0 mph 28.8 mph N/A   Overcast
3:22 AM 44.6 °F 36.4 °F 44.6 °F 100% 29.75 in 10.0 mi WSW 20.7 mph 25.3 mph N/A   Overcast
3:23 AM 44.6 °F 36.1 °F 44.6 °F 100% 29.75 in 10.0 mi WSW 21.9 mph 25.3 mph N/A Rain Light Rain
3:29 AM 44.6 °F 36.1 °F 44.6 °F 100% 29.75 in 10.0 mi WSW 21.9 mph - N/A   Overcast
3:54 AM 42.8 °F 34.3 °F 42.8 °F 100% 29.76 in 10.0 mi WSW 19.6 mph 27.6 mph N/A   Overcast
3:58 AM 42.8 °F 34.8 °F 42.8 °F 100% 29.79 in 10.0 mi SW 17.3 mph - 0.00 in   Overcast
4:08 AM 41.0 °F 32.5 °F 41.0 °F 100% 29.77 in 10.0 mi SW 17.3 mph - N/A   Mostly Cloudy
4:13 AM 41.0 °F 32.2 °F 41.0 °F 100% 29.77 in 10.0 mi SW 18.4 mph - N/A   Mostly Cloudy
4:58 AM 39.0 °F 31.0 °F 39.0 °F 100% 29.85 in 10.0 mi SW 13.8 mph - N/A   Clear
6:58 AM 35.8 °F 25.4 °F 32.5 °F 88% 29.94 in 10.0 mi WSW 18.4 mph 29.9 mph 0.00 in Snow Light Snow
7:17 AM 33.8 °F 23.9 °F 33.8 °F 100% 29.91 in 10.0 mi WSW 15.0 mph - N/A   Clear
7:48 AM 33.8 °F 23.9 °F 32.0 °F 93% 29.92 in 10.0 mi SW 15.0 mph - N/A   Clear
7:58 AM 34.3 °F 25.0 °F 31.5 °F 89% 29.98 in 10.0 mi WSW 13.8 mph - 0.00 in   Clear
8:14 AM 35.6 °F 24.8 °F 32.0 °F 87% 29.95 in 10.0 mi WSW 19.6 mph 24.2 mph N/A   Clear
8:17 AM 35.6 °F 24.5 °F 32.0 °F 87% 29.95 in 10.0 mi WSW 20.7 mph 24.2 mph N/A   Clear
8:26 AM 35.6 °F 25.5 °F 32.0 °F 87% 29.95 in 10.0 mi SW 17.3 mph 26.5 mph N/A   Clear
8:58 AM 36.1 °F 26.9 °F 30.4 °F 80% 30.03 in 10.0 mi WSW 15.0 mph - 0.00 in   Clear
9:07 AM 35.6 °F 26.2 °F 32.0 °F 87% 29.99 in 10.0 mi WSW 15.0 mph - N/A   Clear
9:58 AM 37.9 °F 27.9 °F 32.0 °F 79% 30.06 in 10.0 mi WSW 19.6 mph 27.6 mph 0.00 in   Clear
10:02 AM 39.2 °F 29.3 °F 32.0 °F 75% 30.02 in 10.0 mi WSW 20.7 mph - N/A   Clear
10:11 AM 39.2 °F 29.3 °F 32.0 °F 75% 30.03 in 10.0 mi WSW 20.7 mph - N/A   Clear
10:16 AM 39.2 °F 29.0 °F 32.0 °F 75% 30.03 in 10.0 mi WSW 21.9 mph - N/A   Clear
10:58 AM 39.6 °F 30.0 °F 32.5 °F 76% 30.08 in 10.0 mi WSW 19.6 mph - 0.00 in   Clear
11:24 AM 41.0 °F 32.2 °F 32.0 °F 70% 30.04 in 10.0 mi WSW 18.4 mph - N/A   Clear
11:35 AM 41.0 °F 31.1 °F 30.2 °F 65% 30.05 in 10.0 mi WSW 23.0 mph - N/A   Clear
11:50 AM 41.0 °F 31.6 °F 28.4 °F 61% 30.05 in 10.0 mi WSW 20.7 mph - N/A   Clear
11:58 AM 41.0 °F 31.1 °F 29.1 °F 63% 30.09 in 10.0 mi WSW 23.0 mph - 0.00 in   Clear
12:05 PM 41.0 °F 31.9 °F 30.2 °F 65% 30.05 in 10.0 mi WSW 19.6 mph - N/A   Clear
12:11 PM 41.0 °F 32.2 °F 28.4 °F 61% 30.05 in 10.0 mi WSW 18.4 mph 27.6 mph N/A   Clear
12:58 PM 41.2 °F 31.9 °F 30.4 °F 65% 30.10 in 10.0 mi WSW 20.7 mph - 0.00 in   Clear
1:58 PM 40.1 °F 31.3 °F 30.6 °F 69% 30.10 in 10.0 mi WSW 17.3 mph - N/A   Partly Cloudy
2:58 PM 38.7 °F 30.5 °F 31.3 °F 75% 30.12 in 10.0 mi SW 13.8 mph - N/A   Overcast
3:28 PM 37.4 °F 30.3 °F 32.0 °F 81% 30.08 in 10.0 mi WSW 10.4 mph - N/A   Overcast
3:42 PM 37.4 °F 30.8 °F 32.0 °F 81% 30.09 in 10.0 mi SW 9.2 mph - N/A   Overcast
3:58 PM 37.4 °F 30.3 °F 32.4 °F 82% 30.15 in 10.0 mi SW 10.4 mph - 0.00 in   Overcast
4:58 PM 36.0 °F 29.6 °F 31.3 °F 83% 30.18 in 10.0 mi SW 8.1 mph - N/A   Overcast
5:34 PM 35.6 °F 28.6 °F 32.0 °F 87% 30.12 in 10.0 mi SW 9.2 mph - N/A   Overcast
5:44 PM 35.6 °F 29.2 °F 32.0 °F 87% 30.12 in 10.0 mi SW 8.1 mph - N/A   Overcast
5:58 PM 35.2 °F 28.8 °F 32.5 °F 90% 30.19 in 10.0 mi SW 8.1 mph - 0.00 in   Mostly Cloudy
6:51 PM 33.8 °F 26.4 °F 32.0 °F 93% 30.13 in 10.0 mi SW 9.2 mph - N/A   Mostly Cloudy
6:58 PM 34.5 °F 27.9 °F 32.7 °F 93% 30.20 in 10.0 mi SSW 8.1 mph - 0.00 in   Mostly Cloudy
7:06 PM 33.8 °F 27.0 °F 32.0 °F 93% 30.13 in 10.0 mi South 8.1 mph - N/A   Mostly Cloudy
7:58 PM 33.6 °F 26.8 °F 33.3 °F 99% 30.20 in 10.0 mi South 8.1 mph - 0.00 in   Clear
8:58 PM 32.9 °F 26.7 °F 32.9 °F 100% 30.18 in 10.0 mi South 6.9 mph - N/A   Clear
9:58 PM 32.7 °F 25.7 °F 32.7 °F 100% 30.18 in 10.0 mi SSW 8.1 mph - N/A   Clear
10:58 PM 32.5 °F 24.2 °F 32.5 °F 100% 30.19 in 10.0 mi South 10.4 mph - N/A   Clear
11:02 PM 32.0 °F 24.2 °F 32.0 °F 100% 30.12 in 10.0 mi South 9.2 mph - N/A   Clear
11:14 PM 32.0 °F 24.2 °F 32.0 °F 100% 30.12 in 10.0 mi South 9.2 mph - N/A   Clear
11:58 PM 32.4 °F 25.3 °F 32.4 °F 100% 30.17 in 10.0 mi South 8.1 mph - 0.00 in   Clear